Date String (YYYY-MM-DD hh:mm:ss) UTC,Instrument flags,Ambient pressure (hPa),Sample flow (lpm),Bypass flow (lpm),Sample temperature (°C),Ambient temperature (°C),ASC tube jacket temperature (°C),LED temperature (°C),Box temperature (°C),Sample RH (%),Span deviation,Mass concentration (μg/m³),Mass concentration (μg/m³),Mass concentration (μg/m³)
DateTimeUTC,F1_M11,P_M11,Q1_M11,Q2_M11,T1_M11,T2_M11,T3_M11,T4_M11,T5_M11,U1_M11,ZSPAN_M11,X0_M11,X2_M11,X1_M11
2023-05-14 21:00:00,,0841.6,4.99,0.00,29.8,28.4,00.0,38.1,31.4,25.7,0000.0,0001.75,0001.19,0000.96
2023-05-14 21:01:00,,0841.7,5.00,0.00,29.8,28.4,00.0,38.1,31.4,24.5,0000.0,0001.60,0001.17,0000.96
2023-05-14 21:02:00,,0841.6,5.00,0.00,29.8,28.4,00.0,38.1,31.4,23.9,0000.0,0001.58,0001.16,0000.95
2023-05-14 21:03:00,,0841.6,5.00,0.00,29.8,28.4,00.0,38.1,31.4,23.9,0000.0,0001.54,0001.12,0000.92
2023-05-14 21:04:00,,0841.6,4.99,0.00,29.8,28.4,00.0,38.1,31.5,24.6,0000.0,0001.48,0001.07,0000.87
2023-05-14 21:05:00,,0841.6,5.00,0.00,29.9,28.4,00.0,38.1,31.4,25.3,0000.0,0001.30,0000.99,0000.84
2023-05-14 21:06:00,,0841.6,5.01,0.00,29.9,28.5,00.0,38.2,31.4,24.9,0000.0,0001.24,0000.96,0000.84
2023-05-14 21:07:00,,0841.6,5.00,0.00,29.9,28.5,00.0,38.2,31.5,24.7,0000.0,0001.21,0000.92,0000.82
2023-05-14 21:08:00,,0841.6,5.00,0.00,29.9,28.5,00.0,38.2,31.5,24.5,0000.0,0001.18,0000.90,0000.81
2023-05-14 21:09:00,,0841.6,5.00,0.00,29.9,28.5,00.0,38.2,31.5,24.2,0000.0,0001.19,0000.91,0000.81
2023-05-14 21:10:00,,0841.6,4.99,0.00,29.9,28.5,00.0,38.2,31.5,24.3,0000.0,0001.23,0000.92,0000.81
2023-05-14 21:11:00,,0841.6,5.01,0.00,29.9,28.5,00.0,38.2,31.5,24.2,0000.0,0001.30,0000.91,0000.83
2023-05-14 21:12:00,,0841.6,5.00,0.00,29.9,28.5,00.0,38.2,31.5,24.6,0000.0,0001.29,0000.91,0000.84
2023-05-14 21:13:00,,0841.6,5.01,0.00,29.9,28.5,00.0,38.2,31.5,25.3,0000.0,0001.33,0000.95,0000.86
2023-05-14 21:14:00,,0841.6,4.98,0.00,30.0,28.5,00.0,38.2,31.5,25.4,0000.0,0001.41,0001.00,0000.90
2023-05-14 21:15:00,,0841.6,5.01,0.00,30.0,28.6,00.0,38.3,31.6,25.2,0000.0,0001.49,0001.06,0000.94
2023-05-14 21:16:00,,0841.6,5.01,0.00,30.0,28.6,00.0,38.3,31.6,25.1,0000.0,0001.56,0001.11,0000.97
2023-05-14 21:17:00,,0841.6,5.00,0.00,30.0,28.6,00.0,38.3,31.6,25.1,0000.0,0001.69,0001.14,0000.99
2023-05-14 21:18:00,,0841.6,4.99,0.00,30.0,28.6,00.0,38.3,31.6,25.4,0000.0,0001.86,0001.18,0001.01
2023-05-14 21:19:00,,0841.6,5.00,0.00,30.0,28.6,00.0,38.3,31.6,25.0,0000.0,0001.89,0001.20,0001.03
2023-05-14 21:20:00,,0841.6,5.01,0.00,30.0,28.6,00.0,38.3,31.6,24.8,0000.0,0001.91,0001.20,0001.03
2023-05-14 21:21:00,,0841.6,4.98,0.00,30.0,28.6,00.0,38.3,31.6,24.9,0000.0,0002.10,0001.19,0001.02
2023-05-14 21:22:00,,0841.6,5.01,0.00,30.0,28.6,00.0,38.3,31.6,24.5,0000.0,0002.12,0001.17,0001.01
2023-05-14 21:23:00,,0841.6,4.99,0.00,30.0,28.6,00.0,38.3,31.6,24.5,0000.0,0002.11,0001.16,0001.00
2023-05-14 21:24:00,,0841.6,5.01,0.00,30.1,28.7,00.0,38.4,31.7,24.3,0000.0,0002.11,0001.14,0000.98
2023-05-14 21:25:00,,0841.6,5.00,0.00,30.1,28.7,00.0,38.4,31.7,24.2,0000.0,0002.12,0001.11,0000.95
2023-05-14 21:26:00,,0841.6,5.00,0.00,30.1,28.7,00.0,38.4,31.6,23.5,0000.0,0002.07,0001.07,0000.91
2023-05-14 21:27:00,,0841.6,5.00,0.00,30.1,28.6,00.0,38.4,31.6,23.5,0000.0,0001.99,0001.01,0000.87
2023-05-14 21:28:00,,0841.6,5.00,0.00,30.1,28.6,00.0,38.4,31.6,23.9,0000.0,0001.92,0000.96,0000.84
2023-05-14 21:29:00,,0841.6,5.00,0.00,30.1,28.6,00.0,38.4,31.6,23.9,0000.0,0001.69,0000.91,0000.81
2023-05-14 21:30:00,,0841.6,5.00,0.00,30.1,28.6,00.0,38.4,31.6,23.0,0000.0,0001.56,0000.86,0000.77
2023-05-14 21:31:00,,0841.6,5.00,0.00,30.1,28.6,00.0,38.4,31.6,23.1,0000.0,0001.49,0000.81,0000.73
2023-05-14 21:32:00,,0841.6,5.00,0.00,30.1,28.6,00.0,38.4,31.7,23.5,0000.0,0001.46,0000.79,0000.70
2023-05-14 21:33:00,,0841.6,5.00,0.00,30.1,28.6,00.0,38.4,31.7,23.7,0000.0,0001.06,0000.76,0000.67
2023-05-14 21:34:00,,0841.6,4.99,0.00,30.1,28.7,00.0,38.4,31.7,23.6,0000.0,0001.16,0000.77,0000.65
2023-05-14 21:35:00,,0841.6,5.00,0.00,30.1,28.7,00.0,38.4,31.7,23.9,0000.0,0001.21,0000.78,0000.64
2023-05-14 21:36:00,,0841.6,5.00,0.00,30.1,28.7,00.0,38.4,31.7,23.8,0000.0,0001.13,0000.76,0000.64
2023-05-14 21:37:00,,0841.6,5.01,0.00,30.1,28.7,00.0,38.5,31.7,23.6,0000.0,0001.07,0000.74,0000.64
2023-05-14 21:38:00,,0841.6,5.00,0.00,30.1,28.7,00.0,38.5,31.7,23.6,0000.0,0001.05,0000.74,0000.64
2023-05-14 21:39:00,,0841.6,4.99,0.00,30.1,28.7,00.0,38.5,31.7,23.9,0000.0,0001.10,0000.76,0000.66
2023-05-14 21:40:00,,0841.6,5.01,0.00,30.2,28.7,00.0,38.5,31.8,24.2,0000.0,0001.11,0000.77,0000.66
2023-05-14 21:41:00,,0841.6,5.00,0.00,30.2,28.8,00.0,38.5,31.8,24.1,0000.0,0001.12,0000.77,0000.67
2023-05-14 21:42:00,,0841.5,5.00,0.00,30.2,28.8,00.0,38.5,31.8,24.0,0000.0,0001.20,0000.81,0000.69
2023-05-14 21:43:00,,0841.6,5.01,0.00,30.2,28.8,00.0,38.5,31.8,24.2,0000.0,0001.24,0000.81,0000.69
2023-05-14 21:44:00,,0841.5,4.98,0.00,30.2,28.8,00.0,38.5,31.8,24.0,0000.0,0001.61,0000.82,0000.70
2023-05-14 21:45:00,,0841.5,5.00,0.00,30.2,28.8,00.0,38.5,31.8,23.9,0000.0,0001.48,0000.78,0000.70
2023-05-14 21:46:00,,0841.5,5.02,0.00,30.2,28.8,00.0,38.5,31.8,24.0,0000.0,0001.42,0000.75,0000.68
2023-05-14 21:47:00,,0841.5,4.99,0.00,30.3,28.8,00.0,38.5,31.8,24.0,0000.0,0001.45,0000.74,0000.66
2023-05-14 21:48:00,,0841.5,4.99,0.00,30.3,28.9,00.0,38.6,31.9,23.6,0000.0,0001.48,0000.75,0000.64
2023-05-14 21:49:00,,0841.4,5.01,0.00,30.3,28.9,00.0,38.6,31.9,23.5,0000.0,0001.53,0000.76,0000.64
2023-05-14 21:50:00,,0841.5,5.01,0.00,30.3,28.9,00.0,38.6,31.9,23.7,0000.0,0001.50,0000.74,0000.63
2023-05-14 21:51:00,,0841.5,5.00,0.00,30.3,28.9,00.0,38.6,31.9,23.3,0000.0,0001.52,0000.76,0000.62
2023-05-14 21:52:00,,0841.5,4.98,0.00,30.3,28.9,00.0,38.6,31.9,23.4,0000.0,0001.53,0000.75,0000.61
2023-05-14 21:53:00,,0841.4,5.00,0.00,30.3,28.9,00.0,38.6,31.9,23.3,0000.0,0001.48,0000.73,0000.59
2023-05-14 21:54:00,,0841.4,5.01,0.00,30.3,28.9,00.0,38.6,31.9,23.3,0000.0,0001.43,0000.70,0000.57
2023-05-14 21:55:00,,0841.5,5.00,0.00,30.4,28.9,00.0,38.6,31.9,23.0,0000.0,0001.00,0000.67,0000.55
2023-05-14 21:56:00,,0841.5,4.98,0.00,30.4,28.9,00.0,38.7,31.9,22.8,0000.0,0000.95,0000.65,0000.52
2023-05-14 21:57:00,,0841.5,5.00,0.00,30.4,29.0,00.0,38.7,32.0,22.8,0000.0,0000.92,0000.62,0000.51
2023-05-14 21:58:00,,0841.4,5.00,0.00,30.4,29.0,00.0,38.7,32.0,22.5,0000.0,0000.92,0000.60,0000.49
2023-05-14 21:59:00,,0841.4,5.00,0.00,30.4,29.0,00.0,38.7,32.0,22.2,0000.0,0000.92,0000.56,0000.48
